STARLINK-11430, 62916

Orbit data source: Space-Track

STARLINK-11430, 62916 is a payload satellite owned by SpaceX/Seattle (US) in LEO that was launched on Sat, 08 Feb 2025 UTC via an FALCON 9 launch vehicle from the Air Force Eastern Test Range (AFETR). Payload-class satellites include a variety of spacecraft equipped with specific instruments for various scientific and technological missions. These include communications satellites like Starlink; space stations such as the ISS; scientific satellites like the Hubble; Earth observation satellites from companies like Planet Labs, Umbra, and HawkEye 360; GPS; miniature CubeSats for education and research; and military/defense satellites.

Loading next visibility...
Identifier
62916, 2025-027K
Orbit
LEO
Last TLE update
13 hours ago
Origin
Manufacturer
SpaceX/Seattle
Mission
Operational Commercial Communications
Bus & Motor
STARLINK V2M, Unknown motor
Mass
730 kg wet, ~700 kg dry
Launch date (UTC)
2025-02-08 (5 months ago)
Launch vehicle
FALCON 9
Launch site
Air Force Eastern Test Range (AFETR)
Object type
Payload
Rocket body
Debris
Shape & HBR
Box + 2 Pan, 29 m
Radar Cross Section
36.964 m², Large (>1 m²)

Expand to show TLE details & history

TLE from 13 hours ago
0 STARLINK-11430
1 62916U 25027K   25191.47664858  .00185692  00000-0  14162-2 0  9993
2 62916  43.0002   8.0615 0001888 260.8980  99.1674 15.70878996 25095
Epoch: 2025-07-10T11:26Z
TLE epoch observation values (Epoch: 2025-07-10T11:26:22.437Z)
Latitude
-0.00001°
Longitude
-92.17438°
Altitude
356.358 km
Speed
7.697 km/s
True Right ascension
00h 32m 14s
True Declination
0° 00' 00"
Sunlit
Object was in daylight at epoch
Visualization orbit readout
Latitude
-20.46559°
Longitude
107.98408°
Altitude
359.652 km
Speed
7.695 km/s
Apparent Right ascension
16h 33m 29s
Apparent Declination
-71° 50' 16"
Sunlit
Object is in daylight
Visualization observer readout
Local Sidereal Time
12:48:34
Azimuth
162.855° S
Elevation
-28.477°
Doppler factor
1
Orbital elements
Apogee altitude
359.637 km
Perigee altitude
357.093 km
Semi-major axis
6,736.502 km
Eccentricity
0.00019
Inclination
43.0002°
RAAN
8.0615°
Arg. of periapsis
260.898°
True anomaly
Unknown
Mean anomaly
99.1674°
Eccentric anomaly
Unknown
Mean motion
3.92547 °/min
Orbital period
91.71 mins
BSTAR
0.0014162
Loading maneuver chart data...
Loading SW <> Apogee altitude chart data...
Loading historical data...
Loading historical data...
Loading historical data...
Loading historical data...
Loading historical data...
Loading historical data...
Loading historical data...

STARLINK-11430 Visibility forecast

Observer location: undefined°, undefined°

Span
Click to sort rows by Start time (UTC) header in descending order
Start Az.
Max El. time (UTC)
Max El. Az.
Max El.
End time (UTC)
End Az.
5 mins2025-07-11 15:07:19.415Z221.518° SW2025-07-11 15:09:19.415Z175.301° S31.117°2025-07-11 15:12:19.415Z83.242° E
4 mins2025-07-11 16:44:19.415Z281.715° WNW2025-07-11 16:45:19.415Z313.772° NW36.424°2025-07-11 16:48:19.415Z67.402° ENE
4 mins2025-07-11 18:20:19.415Z299.294° NW2025-07-11 18:22:19.415Z27.296° NE35.625°2025-07-11 18:24:19.415Z80.047° E
4 mins2025-07-11 19:56:19.415Z276.677° WNW2025-07-11 19:58:19.415Z189.563° SSW38.794°2025-07-11 20:00:19.415Z128.946° SE
|